Tracking 25612 objects as of 20-May-2022
HD Live streaming from Space Station
objects crossing your sky now

NAVSTAR 81 (USA 319)

Track NAVSTAR 81 (USA 319) now!
NAVSTAR 81 (USA 319) is classified as:


NORAD ID: 48859
Int'l Code: 2021-054A
Perigee: 20,178.5 km
Apogee: 20,198.2 km
Inclination: 55.2 °
Period: 717.9 minutes
Semi major axis: 26559 km
RCS: Unknown
Launch date: June 17, 2021
Source: United States (US)
Launch site: AIR FORCE EASTERN TEST RANGE (AFETR)
aabbcc
Your satellite tracking list
Your tracking list is empty




NASA's NSSDC Master Catalog

Two Line Element Set (TLE):
1 48859U 21054A   22139.54495626 -.00000086  00000-0  00000-0 0  9999
2 48859  55.1708  32.2119 0003702 196.9055   8.6279  2.00574919  6877
Source of the keplerian elements: AFSPC